Content
SEND FEEDBACK

Daily
Averages
Monthly
Summary
United States of America

PERU, VERMONT


Home > North America > United States > Vermont
Elevation: 1660 feet     Latitude: 43 14N     Longitude: 072 54W

WEATHER
 
SELECT A DAY
Number of Records: 460,723;   Date Range: 1/1/95 - 9/30/14
 
SHARE

PRINT THIS DATA

[ ← Previous Day ]
WEATHER ALMANAC - AUGUST 8, 2014
[ Next Day → ]
[ °C ]   °F
Weather ElementAverageHighLow
Temperature62.3 °F75.2 °F (3:55 pm)51.8 °F (4:55 am)
Dewpoint54.6 °F57.2 °F (9:35 am)50 °F (1:35 am)
Humidity79.1 %100 % (1:15 am)44 % (4:35 pm)
Barometer30.06 in30.10 in (8:15 am)30.01 in (9:55 pm)
Wind Speed4.7 mph12.7 mph (1:35 pm)
Wind Gust21.9 mph (1:35 pm)
Weather ElementAverage
Visibility7.5 mi
Wind DirectionSSE (171.7 °)

Weather ElementTotal
Precipitation---
Heating Degree Days1.5 (Base 65)
Growing Degree Days13.5 (Base 50)
Averaged from 70 records on August 8, 2014
WEATHER CONDITIONS BREAKOUT
WIND DIRECTION BREAKOUT
WEATHER BY HOUR - AUGUST 8, 2014
[ °C ]   °F
Local TimeTemperatureDewpointHumidityBarometerVisibilityWind DirectionWind SpeedGust SpeedPrecipitationEventsConditions
12:15 AM57.2 °F55.4 °F94 %30.01 in10.0 miSE (140°)3.5 mphOvercast
12:35 AM57.2 °F55.4 °F94 %30.01 in10.0 miCalmOvercast
12:55 AM57.2 °F55.4 °F94 %30.02 in10.0 miCalmOvercast
1:15 AM55.4 °F55.4 °F100 %30.01 in10.0 miSSE (160°)3.5 mphOvercast
1:35 AM55.4 °F55.4 °F100 %30.02 in10.0 miCalmOvercast
1:55 AM55.4 °F55.4 °F100 %30.01 in10.0 miCalmMostly Cloudy
2:15 AM55.4 °F55.4 °F100 %30.02 in10.0 miSE (130°)4.6 mphClear
2:35 AM55.4 °F53.6 °F94 %30.02 in10.0 miCalmClear
2:55 AM55.4 °F53.6 °F94 %30.01 in8.0 miCalmClear
3:15 AM53.6 °F53.6 °F100 %30.01 in3.0 miCalmPartly Cloudy
3:35 AM53.6 °F53.6 °F100 %30.02 in0.5 miCalmOvercast
3:55 AM53.6 °F53.6 °F100 %30.02 in3.0 miCalmOvercast
4:15 AM53.6 °F53.6 °F100 %30.03 in0.5 miCalmOvercast
4:35 AM53.6 °F51.8 °F94 %30.03 in0.8 miCalmOvercast
4:55 AM51.8 °F51.8 °F100 %30.04 in0.5 miCalmOvercast
5:15 AM51.8 °F51.8 °F100 %30.05 in0.5 miSSE (150°)3.5 mphOvercast
5:35 AM51.8 °F51.8 °F100 %30.05 in0.2 miCalmOvercast
5:55 AM51.8 °F51.8 °F100 %30.06 in0.2 miSouth (180°)3.5 mphOvercast
6:15 AM51.8 °F51.8 °F100 %30.07 in0.2 miSouth (180°)3.5 mphOvercast
6:35 AM51.8 °F51.8 °F100 %30.08 in0.2 miSouth (170°)3.5 mphOvercast
6:55 AM51.8 °F51.8 °F100 %30.08 in0.2 miSouth (170°)3.5 mphOvercast
7:15 AM51.8 °F50.0 °F94 %30.08 in0.2 miSSE (160°)3.5 mphOvercast
7:35 AM53.6 °F51.8 °F94 %30.09 in0.2 miSSW (200°)3.5 mphOvercast
7:55 AM53.6 °F51.8 °F94 %30.09 in0.2 miSouth (170°)3.5 mphOvercast
8:15 AM53.6 °F53.6 °F100 %30.10 in0.2 miSouth (190°)3.5 mphOvercast
8:35 AM55.4 °F53.6 °F94 %30.10 in0.5 miCalmOvercast
8:55 AM55.4 °F55.4 °F100 %30.09 in1.5 miCalmOvercast
9:15 AM57.2 °F57.2 °F100 %30.10 in7.0 miNW (310°)3.5 mphMostly Cloudy
9:35 AM57.2 °F57.2 °F100 %30.09 in10.0 miCalmScattered Clouds
9:55 AM60.8 °F57.2 °F88 %30.09 in10.0 miCalmClear
10:15 AM62.6 °F57.2 °F82 %30.09 in10.0 miNorth (10°)5.8 mphClear
10:35 AM64.4 °F55.4 °F73 %30.09 in10.0 miNorth (360°)4.6 mphClear
10:55 AM64.4 °F55.4 °F73 %30.09 in10.0 miNorth (350°)6.9 mphClear
11:15 AM66.2 °F57.2 °F73 %30.08 in10.0 miNW (320°)5.8 mphClear
11:35 AM66.2 °F55.4 °F68 %30.08 in10.0 miNW (310°)4.6 mphClear
11:55 AM69.8 °F57.2 °F64 %30.08 in10.0 miNNW (340°)6.9 mphClear
12:15 PM69.8 °F55.4 °F60 %30.07 in10.0 miNorth (360°)12.7 mph18.4 mphPartly Cloudy
12:35 PM71.6 °F55.4 °F57 %30.06 in10.0 miNW (320°)11.5 mph19.6 mphPartly Cloudy
12:55 PM71.6 °F55.4 °F57 %30.06 in10.0 miNNW (330°)8.1 mph17.3 mphPartly Cloudy
1:15 PM71.6 °F55.4 °F57 %30.06 in10.0 miNW (310°)10.4 mphScattered Clouds
1:35 PM73.4 °F55.4 °F53 %30.06 in10.0 miNorth (350°)10.4 mph21.9 mphScattered Clouds
1:55 PM73.4 °F55.4 °F53 %30.05 in10.0 miNNW (330°)12.7 mph19.6 mphPartly Cloudy
2:15 PM73.4 °F53.6 °F50 %30.05 in10.0 miNW (320°)11.5 mph18.4 mphPartly Cloudy
2:35 PM73.4 °F53.6 °F50 %30.05 in10.0 miNW (310°)9.2 mph16.1 mphClear
2:55 PM73.4 °F55.4 °F53 %30.04 in10.0 miWNW (290°)11.5 mph16.1 mphPartly Cloudy
3:15 PM73.4 °F53.6 °F50 %30.04 in10.0 miNorth (360°)10.4 mph19.6 mphPartly Cloudy
3:35 PM73.4 °F53.6 °F50 %30.04 in10.0 miNW (310°)9.2 mph18.4 mphClear
3:55 PM75.2 °F53.6 °F47 %30.03 in10.0 miNW (310°)9.2 mph18.4 mphClear
4:35 PM75.2 °F51.8 °F44 %30.03 in10.0 miNW (310°)10.4 mph16.1 mphClear
4:55 PM75.2 °F53.6 °F47 %30.03 in10.0 miNNW (330°)12.7 mph16.1 mphClear
5:15 PM73.4 °F51.8 °F47 %30.03 in10.0 miNNW (340°)10.4 mph17.3 mphClear
5:35 PM73.4 °F53.6 °F50 %30.03 in10.0 miNW (320°)11.5 mph16.1 mphClear
5:55 PM73.4 °F53.6 °F50 %30.03 in10.0 miNW (310°)6.9 mphClear
6:15 PM73.4 °F53.6 °F50 %30.04 in10.0 miNW (310°)6.9 mphClear
6:35 PM71.6 °F55.4 °F57 %30.05 in10.0 miNW (320°)9.2 mphClear
6:55 PM71.6 °F55.4 °F57 %30.05 in10.0 miNW (310°)4.6 mphClear
7:15 PM69.8 °F55.4 °F60 %30.05 in10.0 miWest (280°)4.6 mphClear
7:35 PM69.8 °F55.4 °F60 %30.06 in10.0 miCalmClear
7:55 PM68.0 °F57.2 °F68 %30.06 in10.0 miCalmClear
8:15 PM64.4 °F57.2 °F77 %30.06 in10.0 miSE (130°)3.5 mphClear
8:35 PM64.4 °F57.2 °F77 %30.07 in10.0 miCalmClear
8:55 PM62.6 °F57.2 °F82 %30.07 in10.0 miCalmClear
9:15 PM60.8 °F57.2 °F88 %30.08 in10.0 miSE (130°)3.5 mphClear
9:35 PM60.8 °F57.2 °F88 %30.09 in10.0 miSSE (150°)5.8 mphClear
10:15 PM59.0 °F55.4 °F88 %30.09 in10.0 miSE (140°)5.8 mphClear
10:35 PM59.0 °F55.4 °F88 %30.09 in10.0 miSouth (180°)4.6 mphClear
10:55 PM59.0 °F55.4 °F88 %30.09 in10.0 miSE (140°)6.9 mphClear
11:15 PM59.0 °F55.4 °F88 %30.09 in10.0 miSE (130°)5.8 mphClear
11:35 PM57.2 °F55.4 °F94 %30.09 in10.0 miSE (140°)4.6 mphClear
11:55 PM57.2 °F53.6 °F88 %30.10 in10.0 miSSE (150°)5.8 mphClear
Hourly data recorded from KRUT, located miles away from Peru, Vermont







STORIES FROM OUR PARTNERS